Location: Natural Bridges National Monument
(37.6093°N, 109.9767°W)
Time: 16:48:32
(UTC-07:00)

LightSail 2 - Visible Passes

Search period start: 25 January 2020 00:00
Search period end: 04 February 2020 00:00
Orbit: 704 x 719 km, 24.0° (Epoch: 25 January)

Date Brightness Start Highest point End Pass type
(mag) Time Alt. Az. Time Alt. Az. Time Alt. Az.
25 Jan 7.5 18:33:01 10° SW 18:36:05 16° S 18:39:10 10° SSE visible
26 Jan 7.7 19:21:04 10° SSW 19:22:31 11° SSW 19:23:58 10° S visible
27 Jan 7.7 18:21:53 10° SW 18:24:16 13° SSW 18:26:39 10° SSE visible
